�������r�C�����j�^�v���󋵏��
Date,Time,5�C6���@���p�r�C��,����,����(m/s)
2023/11/16,00:00,3.7,�k��,4.4
2023/11/16,00:10,3.7,�k��,5.0
2023/11/16,00:20,3.8,�k��,5.0
2023/11/16,00:30,3.6,�k��,5.0
2023/11/16,00:40,3.7,�k��,5.3
2023/11/16,00:50,3.7,�k�k��,5.3
2023/11/16,01:00,3.6,�k��,4.4
2023/11/16,01:10,3.6,�k��,4.7
2023/11/16,01:20,3.6,�k�k��,5.4
2023/11/16,01:30,3.8,�k��,5.1
2023/11/16,01:40,3.6,�k�k��,4.6
2023/11/16,01:50,3.7,�k�k��,5.1
2023/11/16,02:00,3.7,�k�k��,5.1
2023/11/16,02:10,3.8,�k�k��,4.9
2023/11/16,02:20,3.7,�k�k��,6.1
2023/11/16,02:30,3.8,�k�k��,5.6
2023/11/16,02:40,3.6,�k�k��,6.3
2023/11/16,02:50,3.7,�k�k��,5.8
2023/11/16,03:00,3.7,�k�k��,5.5
2023/11/16,03:10,3.8,�k�k��,5.6
2023/11/16,03:20,3.8,�k�k��,5.5
2023/11/16,03:30,3.7,�k�k��,6.1
2023/11/16,03:40,3.8,�k�k��,6.2
2023/11/16,03:50,3.8,�k�k��,6.8
2023/11/16,04:00,3.5,�k�k��,7.0
2023/11/16,04:10,3.5,�k��,6.2
2023/11/16,04:20,3.7,�k�k��,5.8
2023/11/16,04:30,3.6,�k�k��,6.5
2023/11/16,04:40,3.6,�k��,6.5
2023/11/16,04:50,3.7,�k�k��,5.9
2023/11/16,05:00,3.7,�k��,5.5
2023/11/16,05:10,3.6,�k��,5.9
2023/11/16,05:20,3.6,�k��,5.6
2023/11/16,05:30,3.5,�k��,5.7
2023/11/16,05:40,3.6,�k�k��,5.7
2023/11/16,05:50,3.7,�k�k��,5.2
2023/11/16,06:00,3.7,�k��,5.5
2023/11/16,06:10,3.7,�k�k��,6.0
2023/11/16,06:20,3.7,�k�k��,5.4
2023/11/16,06:30,3.7,�k�k��,5.6
2023/11/16,06:40,3.5,�k�k��,5.6
2023/11/16,06:50,3.6,�k�k��,5.2
2023/11/16,07:00,3.7,�k�k��,5.6
2023/11/16,07:10,3.6,�k��,5.3
2023/11/16,07:20,3.7,�k�k��,5.8
2023/11/16,07:30,3.8,�k�k��,5.8
2023/11/16,07:40,3.7,�k�k��,4.9
2023/11/16,07:50,3.7,�k�k��,5.0
2023/11/16,08:00,3.8,�k�k��,4.6
2023/11/16,08:10,3.9,�k�k��,4.7
2023/11/16,08:20,3.7,�k�k��,4.3
2023/11/16,08:30,3.8,�k�k��,4.6
2023/11/16,08:40,3.7,�k�k��,5.7
2023/11/16,08:50,3.6,�k,4.1
2023/11/16,09:00,3.6,�k,4.3
2023/11/16,09:10,3.7,�k,4.4
2023/11/16,09:20,3.5,�k,4.7
2023/11/16,09:30,3.6,�k,5.5
2023/11/16,09:40,3.8,�k,4.3
2023/11/16,09:50,3.7,�k,5.9
2023/11/16,10:00,3.6,�k,5.1
2023/11/16,10:10,3.6,�k,4.4
2023/11/16,10:20,3.7,�k,4.6
2023/11/16,10:30,3.6,�k,4.8
2023/11/16,10:40,3.5,�k,4.3
2023/11/16,10:50,3.6,�k,3.9
2023/11/16,11:00,3.7,�k,4.2
2023/11/16,11:10,3.6,�k,3.2
2023/11/16,11:20,3.6,�k�k��,3.5
2023/11/16,11:30,3.7,�k��,4.0
2023/11/16,11:40,3.8,�k�k��,3.1
2023/11/16,11:50,3.6,�k,2.9
2023/11/16,12:00,3.7,�k��,2.6
2023/11/16,12:10,3.7,�k�k��,3.1
2023/11/16,12:20,3.7,�k�k��,3.6
2023/11/16,12:30,3.7,�k�k��,4.1
2023/11/16,12:40,3.6,�k�k��,5.4
2023/11/16,12:50,3.7,�k�k��,5.3
2023/11/16,13:00,3.9,�k�k��,5.9
2023/11/16,13:10,3.6,�k�k��,5.6
2023/11/16,13:20,3.5,�k�k��,5.4
2023/11/16,13:30,3.8,�k�k��,5.3
2023/11/16,13:40,3.7,�k,4.0
2023/11/16,13:50,3.7,�k,4.0
2023/11/16,14:00,3.6,�k,4.6
2023/11/16,14:10,3.5,�k,4.3
2023/11/16,14:20,3.8,�k,4.3
2023/11/16,14:30,3.8,�k,4.4
2023/11/16,14:40,3.7,�k,4.3
2023/11/16,14:50,3.6,�k,3.4
2023/11/16,15:00,3.6,�k�k��,3.5
2023/11/16,15:10,3.8,�k,3.6
2023/11/16,15:20,3.7,�k�k��,3.6
2023/11/16,15:30,3.7,�k�k��,3.0
2023/11/16,15:40,3.6,�k�k��,3.5
2023/11/16,15:50,3.7,�k�k��,3.5
2023/11/16,16:00,3.7,�k��,3.2
2023/11/16,16:10,3.7,�k��,2.6
2023/11/16,16:20,3.7,�k��,3.1
2023/11/16,16:30,3.8,�k��,3.9
2023/11/16,16:40,3.7,�k��,4.1
2023/11/16,16:50,3.6,�k��,4.8
2023/11/16,17:00,3.9,�k��,4.1
2023/11/16,17:10,3.7,�k��,3.6
2023/11/16,17:20,3.9,�k��,3.6
2023/11/16,17:30,3.6,�k��,4.3
2023/11/16,17:40,3.6,�k��,4.0
2023/11/16,17:50,3.6,�k��,4.6
2023/11/16,18:00,3.7,�k��,4.8
2023/11/16,18:10,3.7,�k��,5.0
2023/11/16,18:20,3.6,�k�k��,5.3
2023/11/16,18:30,3.7,�k�k��,4.8
2023/11/16,18:40,3.5,�k��,5.0
2023/11/16,18:50,3.7,�k��,4.8
2023/11/16,19:00,3.6,�k��,4.2
2023/11/16,19:10,3.6,�k��,4.2
2023/11/16,19:20,3.8,�k��,4.3
2023/11/16,19:30,3.8,�k��,4.6
2023/11/16,19:40,3.6,�k��,4.6
2023/11/16,19:50,3.6,�k�k��,4.2
2023/11/16,20:00,3.6,�k�k��,4.3
2023/11/16,20:10,3.6,�k�k��,4.8
2023/11/16,20:20,3.9,�k�k��,5.5
2023/11/16,20:30,3.5,�k�k��,5.4
2023/11/16,20:40,3.6,�k��,4.7
2023/11/16,20:50,3.7,�k��,4.8
2023/11/16,21:00,3.8,�k�k��,4.6
2023/11/16,21:10,3.8,�k�k��,4.7
2023/11/16,21:20,3.7,�k��,4.4
2023/11/16,21:30,3.8,�k��,4.2
2023/11/16,21:40,3.7,���k��,3.5
2023/11/16,21:50,3.6,���k��,3.5
2023/11/16,22:00,3.8,�k��,2.9
2023/11/16,22:10,3.6,�k��,3.1
2023/11/16,22:20,3.8,�k��,2.3
2023/11/16,22:30,3.7,�k��,2.5
2023/11/16,22:40,3.7,�k��,2.8
2023/11/16,22:50,3.8,�k��,3.2
2023/11/16,23:00,3.6,�k��,2.6
2023/11/16,23:10,3.6,�k��,2.5
2023/11/16,23:20,3.8,�k��,2.9
2023/11/16,23:30,3.6,�k��,3.1
2023/11/16,23:40,3.5,�k��,2.5
2023/11/16,23:50,3.8,�k��,1.5
